Terug naar catalogus

STARLINK-31438

ActiefCommunicatieVLEO
NORAD 59234·PAYLOAD·🇺🇸 United States

Gelanceerd Mar 16, 2024 vanaf Cape Canaveral Space Force Station

Loading…

Volgende Passages (komende 24 uur)

TLE

VersSource: CelesTrak SupGP

Epoch: Sep 15, 2026, 02:22 UTC

1 59234C 24049D   26258.09909722  .00031304  00000+0  11339-2 0  2580
2 59234  43.0002 142.8476 0001463 275.6074 349.6827 15.27559616    18

Volg STARLINK-31438 in realtime met AllMySat

Download on the App Store